Simultaneous Nadir Overpasses (SNOs) Predictions

Prediction of SNOs between AQUA and NOAA-19 Satellite Orbit:

Table of predicted SNOs for the next 14.0 days since TLE Epoch: 5/24/2014
Index Date (AQUA) Time (AQUA) Lat,Lon (AQUA) SZA (AQUA ) Date (NOAA-19) Time (NOAA-19) Lat,Lon (NOAA-19) SZA (NOAA-19 ) Distance(km) Time Diff (sec)
1 05/26/2014 03:04:24 -76.21, -57.84 124.68 05/26/2014 03:03:10 -76.19, -57.75 124.68 2.94 74
2 05/26/2014 03:53:32 75.24, 112.63 54.23 05/26/2014 03:53:57 75.24, 112.68 54.22 1.34 25
3 05/28/2014 08:37:55 75.70, 40.30 54.37 05/28/2014 08:37:59 75.70, 40.26 54.38 1.13 4
4 05/30/2014 13:22:10 75.76, -30.96 54.11 05/30/2014 13:21:52 75.75, -30.86 54.10 2.91 18
5 05/30/2014 14:11:19 -74.94, 138.96 126.81 05/30/2014 14:12:30 -74.94, 138.96 126.82 0.15 71
6 06/01/2014 18:06:30 76.09,-103.01 54.18 06/01/2014 18:05:51 76.09,-102.96 54.19 1.33 39
7 06/01/2014 18:55:41 -75.37, 66.75 126.64 06/01/2014 18:56:31 -75.37, 66.70 126.64 1.52 50
8 06/03/2014 22:50:49 76.38,-174.99 54.24 06/03/2014 22:49:49 76.38,-174.98 54.26 0.25 60
9 06/03/2014 23:40:00 -75.66, -5.13 126.58 06/03/2014 23:40:29 -75.67, -5.19 126.58 2.09 29




NCC Satellite Simultaneous Nadir Overpasses (SNOs) Prediction Service
